Location: Unspecified
(0.0000°N, 0.0000°E)
Time: 23:46:32
(UTC+00:00)

YUBILEINY - Visible Passes

Search period start: 18 August 2019 00:00
Search period end: 28 August 2019 00:00
Orbit: 1478 x 1509 km, 82.5° (Epoch: 17 August)

Date Brightness Start Highest point End Pass type
(mag) Time Alt. Az. Time Alt. Az. Time Alt. Az.
18 Aug ? 20:19:32 10° NNE 20:21:17 16° NNE 20:21:17 16° NNE visible
18 Aug ? 22:16:36 10° NW 22:17:13 12° NW 22:17:13 12° NW visible
19 Aug ? 21:25:42 10° NNW 21:28:30 23° NNW 21:28:30 23° NNW visible
20 Aug ? 20:36:15 10° N 20:39:49 28° NNE 20:39:49 28° NNE visible
21 Aug ? 19:48:17 10° NNE 19:51:13 20° NE 19:51:13 20° NE visible
21 Aug ? 21:44:06 10° NNW 21:47:10 22° NW 21:47:10 22° NW visible
22 Aug ? 20:53:42 10° N 20:58:38 39° NNW 20:58:38 39° NNW visible
23 Aug ? 20:04:38 10° NNE 20:10:11 38° NE 20:10:11 38° NE visible
23 Aug ? 22:03:35 10° NW 22:06:09 16° WNW 22:06:09 16° WNW visible
24 Aug ? 19:17:16 10° NE 19:21:50 21° ENE 19:21:50 21° ENE visible
24 Aug ? 21:11:48 10° NNW 21:17:49 39° WNW 21:17:49 39° WNW visible
25 Aug ? 20:21:48 10° N 20:29:36 73° NNE 20:29:36 73° NNE visible
26 Aug ? 19:33:10 10° NNE 19:41:14 40° E 19:41:36 40° E visible
26 Aug ? 21:30:44 10° NW 21:37:36 26° W 21:37:36 26° W visible
27 Aug ? 18:46:37 10° NE 18:51:48 17° E 18:53:51 16° ESE visible
27 Aug ? 20:39:37 10° NNW 20:48:12 58° W 20:49:53 51° SW visible
